Guest (not logged in) | Log in

Project information

Duration: 2018-12-20 00:00 onwards
Historical data from: 1995-01-01
Position: 0° 0' 0.00" N
0° 0' 0.00" E
0 m A.S.L
Contact: Carsten Weber Kock
Description: Zephir 317 måler vind i Roskilde

Measurements

NameHeight [m]DurationLatest (2019-04-20 23:50)
Dir_100m 0.00 2018-12-20 14:20 onwards 166.76 Deg
Dir_10m 0.00 2018-12-20 14:20 onwards 175.07 Deg
Dir_125m 0.00 2018-12-20 14:20 onwards 164.45 Deg
Dir_150m 0.00 2018-12-20 14:20 onwards 164.90 Deg
Dir_200m 0.00 2018-12-20 14:20 onwards 164.68 Deg
Dir_20m 0.00 2018-12-20 14:20 onwards 148.79 Deg
Dir_30m 0.00 2018-12-20 14:20 onwards 157.91 Deg
Dir_38m 0.00 2018-12-20 14:20 onwards 173.41 Deg
Dir_50m 0.00 2018-12-20 14:20 onwards 185.07 Deg
Dir_60m 0.00 2018-12-20 14:20 onwards 182.99 Deg
Dir_800m 0.00 2018-12-20 14:20 onwards 123.01 Deg
Dir_80m 0.00 2018-12-20 14:20 onwards 175.07 Deg
Humidity 0.00 2018-12-20 14:20 onwards 55.60 %
MetDir 0.00 2018-12-20 14:20 onwards 176.93 Deg
Metwsp 0.00 2018-12-20 14:20 onwards 0.92 m/s
Pressure 0.00 2018-12-20 14:20 onwards 1022.30 mbar
Temp 0.00 2018-12-20 14:20 onwards 5.10 DegC
TI_100m 0.00 2018-12-20 14:20 onwards 0.01 -
TI_10m 0.00 2018-12-20 14:20 onwards 0.17 -
TI_125m 0.00 2018-12-20 14:20 onwards 0.01 -
TI_150m 0.00 2018-12-20 14:20 onwards 0.01 -
TI_200m 0.00 2018-12-20 14:20 onwards 0.01 -
TI_20m 0.00 2018-12-20 14:20 onwards 0.12 -
TI_30m 0.00 2018-12-20 14:20 onwards 0.13 -
TI_38m 0.00 2018-12-20 14:20 onwards 0.20 -
TI_50m 0.00 2018-12-20 14:20 onwards 0.07 -
TI_60m 0.00 2018-12-20 14:20 onwards 0.02 -
TI_800m 0.00 2018-12-20 14:20 onwards 0.03 -
TI_80m 0.00 2018-12-20 14:20 onwards 0.03 -
Vert_100m 0.00 2018-12-20 14:20 onwards -0.02 m/s
Vert_10m 0.00 2018-12-20 14:20 onwards -0.02 m/s
Vert_125m 0.00 2018-12-20 14:20 onwards -0.01 m/s
Vert_150m 0.00 2018-12-20 14:20 onwards -0.01 m/s
Vert_200m 0.00 2018-12-20 14:20 onwards -0.01 m/s
Vert_20m 0.00 2018-12-20 14:20 onwards -0.01 m/s
Vert_30m 0.00 2018-12-20 14:20 onwards -0.02 m/s
Vert_38m 0.00 2018-12-20 14:20 onwards -0.01 m/s
Vert_50m 0.00 2018-12-20 14:20 onwards -0.01 m/s
Vert_60m 0.00 2018-12-20 14:20 onwards -0.01 m/s
Vert_800m 0.00 2018-12-20 14:20 onwards -0.01 m/s
Vert_80m 0.00 2018-12-20 14:20 onwards -0.01 m/s
Wsp_100m 0.00 2018-12-20 14:20 onwards 2.80 m/s
Wsp_10m 0.00 2018-12-20 14:20 onwards 0.63 m/s
Wsp_125m 0.00 2018-12-20 14:20 onwards 2.83 m/s
Wsp_150m 0.00 2018-12-20 14:20 onwards 2.82 m/s
Wsp_200m 0.00 2018-12-20 14:20 onwards 2.79 m/s
Wsp_20m 0.00 2018-12-20 14:20 onwards 0.75 m/s
Wsp_30m 0.00 2018-12-20 14:20 onwards 0.83 m/s
Wsp_38m 0.00 2018-12-20 14:20 onwards 1.25 m/s
Wsp_50m 0.00 2018-12-20 14:20 onwards 1.96 m/s
Wsp_60m 0.00 2018-12-20 14:20 onwards 2.14 m/s
Wsp_800m 0.00 2018-12-20 14:20 onwards 1.90 m/s
Wsp_80m 0.00 2018-12-20 14:20 onwards 2.49 m/s
Comments and help requests to webmaster
© 2019